Location: Puerto Pe�asco
(31.3170°N, 113.5330°W)
Time: 23:11:36
(UTC-07:00)

Daily predictions for brighter satellites

Satellite Brightness Start Highest point End
(mag) Time Altitude Azimuth Time Altitude Azimuth Time Altitude Azimuth
Resurs 1-3 4.2 19:18:51 10° SE 19:22:54 38° ENE 19:26:57 10° N
HJ-1C 3.5 19:21:54 10° SSE 19:25:04 50° ENE 19:28:17 10° N
Cosmos 1697 Rocket 3.0 19:19:45 10° S 19:25:06 45° ESE 19:30:26 10° NE
Delta 2 Rocket 4.3 19:26:06 10° WNW 19:31:54 68° SSW 19:37:21 10° ESE
Cosmos 1544 Rocket 4.4 19:30:05 10° SSW 19:34:23 56° W 19:38:44 10° N
Cosmos 2123 Rocket 4.0 19:30:17 10° N 19:36:23 60° E 19:42:28 10° SSE
Cosmos 468 Rocket 4.0 19:37:10 10° S 19:42:09 56° ESE 19:47:10 10° NNE
Meteor 1-29 4.2 19:43:23 10° N 19:46:45 47° WNW 19:50:06 10° SSW
Helios 1A 3.1 19:43:58 10° S 19:48:07 77° WSW 19:52:19 10° NNW
Cosmos 1980 Rocket 2.5 19:44:16 10° S 19:49:35 43° ESE 19:54:56 10° NE
DELTA 2 R/B (1) 3.9 19:45:33 10° WNW 19:51:04 59° NNE 19:55:21 17° E
H-2A R/B 3.4 19:48:18 11° SE 19:51:36 35° ENE 19:55:12 10° N
Resurs 01 Rocket 2.0 19:47:47 10° S 19:52:11 68° WSW 19:56:37 10° NNW
RESURS DK-1 3.9 19:49:40 10° NNE 19:52:43 20° ENE 19:54:07 17° E
CZ-4B DEB 2.8 19:51:28 10° SSE 19:54:41 64° ENE 19:57:57 10° N
Cosmos 1461 3.5 19:51:43 10° NW 19:55:36 51° WSW 19:59:23 10° S
Cosmos 1814 Rocket 4.0 19:50:50 10° S 19:56:07 65° ESE 20:01:22 10° NNE
FENGYUN 3A 3.7 19:54:28 10° SSE 19:59:43 60° ENE 20:04:58 10° N
Cosmos 1656 4.3 19:54:20 10° SSW 19:59:54 60° WNW 20:05:23 10° NNE
Cosmos 1153 Rocket 4.4 19:57:13 10° S 20:03:23 77° E 20:09:32 10° N
Cosmos 1500 3.0 20:09:03 10° S 20:12:48 87° E 20:16:35 10° N
Cosmos 1447 Rocket 4.5 20:08:07 10° N 20:14:27 71° E 20:20:46 10° SSE
Cosmos 1975 3.9 20:13:18 10° SSW 20:17:15 48° W 20:21:14 10° N
CZ-2D R/B 3.2 20:14:30 14° SSE 20:17:44 89° WSW 20:21:39 10° NNW
OTV 4 1.7 20:15:53 10° W 20:18:32 30° SSW 20:19:06 28° S
Lacrosse 5 2.4 20:14:31 10° NNW 20:19:20 43° NE 20:21:09 31° E
Iridium 4 Rocket 3.0 20:15:28 10° N 20:20:13 77° E 20:24:01 14° S
Cosmos 1825 Rocket 4.4 20:17:32 10° NNE 20:21:22 30° ENE 20:21:22 30° ENE
Cosmos 1802 Rocket 4.2 20:15:21 10° SSE 20:21:28 51° E 20:27:39 10° NNE
Cosmos 1340 4.2 20:20:24 10° NNE 20:22:27 21° NE 20:22:27 21° NE
Cosmos 2322 Rocket 2.9 20:25:06 30° E 20:25:06 30° E 20:29:21 10° NE
Lacrosse 5 rocket 2.3 20:21:25 10° NW 20:24:47 35° WSW 20:26:36 21° S
Cosmos 2016 Rocket 4.2 20:21:45 17° SSE 20:26:06 44° E 20:31:55 10° NNE
USA 186 1.5 20:25:30 52° S 20:26:07 80° WSW 20:29:00 10° NNW
Cosmos 2227 Rocket 3.4 20:21:03 10° NW 20:26:18 41° WSW 20:31:32 10° S
Cosmos 2084 3.3 20:22:43 10° NNW 20:26:54 89° SW 20:28:31 38° SSE
Envisat 3.8 20:29:51 30° ENE 20:30:06 31° ENE 20:34:31 10° N
H-2A R/B 4.1 20:32:10 14° NE 20:32:10 14° NE 20:33:16 10° NNE
CZ-4 DEB 4.5 20:36:07 23° NNE 20:36:07 23° NNE 20:37:35 10° N
Cosmos 1937 Rocket 3.5 20:31:17 10° N 20:36:34 67° ENE 20:38:18 42° SE
Cosmos 2173 Rocket 3.9 20:31:25 10° S 20:37:47 83° E 20:44:08 10° N
ALOS 3.3 20:35:42 10° S 20:40:08 44° W 20:44:36 10° NNW
Cosmos 2297 Rocket 3.2 20:35:41 10° NW 20:41:00 43° WSW 20:46:12 11° S
Cosmos 990 Rocket 4.0 20:38:46 10° N 20:43:55 56° ENE 20:44:33 52° E
Cosmos 2360 4.2 20:38:34 10° SSW 20:44:17 85° WNW 20:50:02 10° NNE
Cosmos 2298 Rocket 4.4 20:40:14 10° NNW 20:45:28 61° WSW 20:48:39 23° S
ERS-1 Rocket 2.9 20:48:48 59° ESE 20:49:22 64° ENE 20:54:20 10° N
YAOGAN 11 4.0 20:49:31 72° ESE 20:49:42 74° ENE 20:54:09 10° N
OAO 2 Rocket 3.4 20:45:43 10° WNW 20:50:43 68° NNE 20:51:31 57° ENE
Cosmos 2227 4.4 20:48:33 10° N 20:54:08 52° ENE 20:54:23 51° ENE
Tiangong 1 3.3 20:52:03 10° NW 20:53:35 22° NNW 20:53:35 22° NNW
Cosmos 2100 Rocket 4.4 20:50:23 10° SSW 20:56:35 62° W 21:02:45 10° N
Meteor 1-21 4.2 20:51:09 10° N 20:56:57 69° E 20:57:45 61° SE
Cosmos 1743 3.8 20:55:20 22° SW 20:57:31 44° W 21:01:17 10° N
Cosmos 1939 Rocket 3.6 20:59:13 45° NNE 20:59:13 45° NNE 21:02:14 10° N
Cosmos 836 Rocket 4.4 20:57:04 10° SSW 21:02:20 86° WNW 21:07:40 10° NNE
Cosmos 1763 Rocket 4.4 20:57:51 10° SW 21:02:45 47° WNW 21:07:39 10° N
Tsikada Rocket 4.3 21:09:47 10° N 21:15:16 52° NE 21:15:16 52° NE
Cosmos 2058 Rocket 4.2 21:18:12 40° N 21:18:12 40° N 21:21:09 10° N
SL-16 R/B 2.2 21:23:21 75° NNW 21:23:21 75° NNW 21:28:41 10° NNE
Cosmos 2098 Rocket 4.2 21:24:19 38° SSW 21:27:03 71° W 21:32:54 10° N
Cosmos 1725 Rocket 3.9 21:27:36 77° SW 21:27:58 81° W 21:34:14 10° N
RESURS DK-1 4.4 21:27:17 10° NW 21:30:05 24° W 21:30:05 24° W
ASTEX 1 4.4 21:28:02 10° N 21:31:24 42° NNW 21:31:24 42° NNW
BREEZE-M TANK 4.5 21:41:52 10° NW 21:45:18 29° NW 21:45:18 29° NW
Lacrosse 5 4.1 21:58:11 10° WNW 22:00:22 19° W 22:00:22 19° W
Cosmos 2263 Rocket 4.0 21:57:43 10° N 21:59:58 24° N 21:59:58 24° N
Cosmos 2322 Rocket 3.9 22:06:35 23° W 22:08:26 28° WNW 22:13:13 10° N
